Location: Ackerson Creek
(37.8210°N, 119.8757°W)
Time: 15:37:46
(UTC+00:00)

KORONAS-FOTON - Pass Details

Date: 13 April 2024
Orbit: 478 x 498 km, 82.4° (Epoch: 22 May)

Event Time Altitude Azimuth Distance (km) Brightness Sun altitude
Rises 12:50:44 0° 192° (SSW) 2,554 7.0 -7.6°
Reaches altitude 10° 12:52:51 10° 195° (SSW) 1,673 6.1 -7.2°
Maximum altitude 12:56:29 65° 278° (W) 539 3.7 -6.5°
Drops below altitude 10° 13:00:07 10° 1° (N) 1,673 6.6 -5.8°
Sets 13:02:14 0° 4° (N) 2,554 7.6 -5.4°
